Tracking 34719 objects as of 12-Jul-2026
HD Live streaming from Space Station
objects crossing your sky now

METEOSAT 12 (MTG I1)

Track METEOSAT 12 (MTG I1) now!
METEOSAT 12 (MTG I1) is classified as:


NORAD ID: 54743
Int'l Code: 2022-170C
Perigee: 35,779.2 km
Apogee: 35,810.9 km
Inclination: 0.7 °
Period: 1,436.2 minutes
Semi major axis: 42166 km
RCS: Unknown
Launch date: December 13, 2022
Source: European Organisation for the Exploitation of Meteorological Satellites (EUME)
Launch site: FRENCH GUIANA (FRGUI)
Your satellite tracking list
Your tracking list is empty




NASA's NSSDC Master Catalog

Two Line Element Set (TLE):
1 54743U 22170C   26193.34900604 -.00000007  00000-0  00000-0 0  9990
2 54743   0.7220  19.1988 0003767  82.7591 313.6467  1.00267072 13231
Source of the keplerian elements: AFSPC